East Swanzey, NH

6:59 AM EST on February 11, 2016 (GMT -0500)
Dillant-Hopkins

Weather History for KEEN - December, 2012

Change the Weather History Date:

Sunday, December 2, 2012

  Actual Average (KMHT) Record (KMHT)
Temperature  
Mean Temperature 36 °F 35 °F  
Max Temperature 44 °F 43 °F - ()
Min Temperature 28 °F 28 °F - ()
Degree Days  
Heating Degree Days 29    
Cooling Degree Days 0    
Moisture  
Dew Point 33 °F    
Average Humidity 92    
Maximum Humidity 100    
Minimum Humidity 86    
Precipitation  
Precipitation 0.09 in 0.10 in - ()
Month to date precipitation 0.20  
Year to date precipitation 41.50  
Snow  
Snow 0.00 in - - ()
Since 1 July snowfall  
Snow Depth -    
Sea Level Pressure  
Sea Level Pressure 30.24 in    
Wind  
Wind Speed 1 mph (SW)    
Max Wind Speed 10 mph    
Max Gust Speed -    
Visibility 3 miles    
Events      
T = Trace of Precipitation, MM = Missing Value Source: NWS Daily Summary

Daily Weather History Graph

Daily Weather History Graph

Search for Another Location

Airport or City:

Trip Planner

Search our weather history database for the weather conditions in past years. The results will help you decide how hot, cold, wet, or windy it might be!

Date:

Astronomy

Dec. 02, 2012 Rise Set
Actual Time 7:01 AM EST 4:15 PM EST
Civil Twilight 6:30 AM EST 4:47 PM EST
Nautical Twilight 5:54 AM EST 5:22 PM EST
Astronomical Twilight 5:20 AM EST 5:56 PM EST
Moon 8:02 PM EST (12/2) 9:47 AM EST (12/2)
Length of Visible Light 10h 17m
Length of Day
9h 13m
Waning Gibbous, 86% of the Moon is Illuminated
Dec 2
Waning Gibbous
Dec 6
Last Quarter
Dec 13
New
Dec 20
First Quarter
Dec 28
Full

Hourly Weather History & Observations

Time (EST) Temp. Windchill Dew Point Humidity Pressure Visibility Wind Dir Wind Speed Gust Speed Precip Events Conditions
12:15 AM 28.4 °F - 26.6 °F 93% 30.47 in 2.0 mi Calm Calm - N/A   Overcast
12:35 AM 28.4 °F - 26.6 °F 93% 30.47 in 1.8 mi Calm Calm - N/A   Overcast
12:55 AM 28.4 °F - 26.6 °F 93% 30.47 in 2.5 mi Calm Calm - N/A   Overcast
1:15 AM 28.4 °F - 26.6 °F 93% 30.47 in 2.5 mi Calm Calm - N/A   Overcast
1:35 AM 28.4 °F - 26.6 °F 93% 30.46 in 2.5 mi Calm Calm - N/A   Overcast
1:55 AM 28.4 °F - 26.6 °F 93% 30.46 in 2.5 mi Calm Calm - N/A   Overcast
2:15 AM 28.4 °F - 26.6 °F 93% 30.46 in 3.0 mi Calm Calm - N/A   Overcast
2:35 AM 28.4 °F - 28.4 °F 100% 30.46 in 2.0 mi Calm Calm - N/A   Overcast
2:55 AM 30.2 °F - 26.6 °F 86% 30.46 in 3.0 mi Calm Calm - N/A   Overcast
3:15 AM 30.2 °F - 26.6 °F 86% 30.45 in 2.5 mi Calm Calm - N/A   Overcast
3:35 AM 30.2 °F - 28.4 °F 93% 30.43 in 2.0 mi Calm Calm - N/A   Overcast
3:55 AM 30.2 °F - 28.4 °F 93% 30.42 in 1.8 mi Calm Calm - N/A   Overcast
4:15 AM 30.2 °F - 28.4 °F 93% 30.41 in 1.5 mi Calm Calm - N/A   Overcast
4:35 AM 30.2 °F - 28.4 °F 93% 30.41 in 1.8 mi Calm Calm - N/A   Overcast
4:55 AM 30.2 °F - 28.4 °F 93% 30.41 in 1.8 mi Calm Calm - N/A   Overcast
5:15 AM 30.2 °F - 28.4 °F 93% 30.40 in 1.2 mi Calm Calm - N/A   Overcast
5:35 AM 30.2 °F - 28.4 °F 93% 30.40 in 1.0 mi Calm Calm - N/A   Overcast
5:55 AM 30.2 °F - 28.4 °F 93% 30.40 in 0.8 mi Calm Calm - N/A   Overcast
6:15 AM 30.2 °F - 28.4 °F 93% 30.39 in 0.8 mi Calm Calm - N/A   Overcast
6:35 AM 30.2 °F - 28.4 °F 93% 30.38 in 1.2 mi Calm Calm - N/A   Overcast
6:55 AM 30.2 °F - 28.4 °F 93% 30.37 in 1.2 mi Calm Calm - N/A   Overcast
7:15 AM 30.2 °F - 28.4 °F 93% 30.36 in 1.0 mi Calm Calm - N/A   Overcast
7:35 AM 30.2 °F - 28.4 °F 93% 30.36 in 1.0 mi Calm Calm - N/A   Overcast
7:55 AM 30.2 °F - 28.4 °F 93% 30.35 in 1.8 mi Calm Calm - N/A   Overcast
8:15 AM 30.2 °F - 28.4 °F 93% 30.34 in 0.8 mi Calm Calm - N/A   Overcast
8:35 AM 30.2 °F - 28.4 °F 93% 30.33 in 2.0 mi Calm Calm - N/A   Overcast
8:55 AM 30.2 °F - 28.4 °F 93% 30.33 in 2.5 mi Calm Calm - N/A   Overcast
9:15 AM 30.2 °F - 28.4 °F 93% 30.33 in 1.5 mi Calm Calm - N/A   Overcast
9:35 AM 32.0 °F - 30.2 °F 93% 30.32 in 1.0 mi Calm Calm - N/A   Overcast
9:55 AM 32.0 °F - 30.2 °F 93% 30.33 in 0.2 mi Calm Calm - N/A   Overcast
10:15 AM 32.0 °F - 30.2 °F 93% 30.31 in 0.2 mi Calm Calm - N/A   Overcast
10:35 AM 32.0 °F - 30.2 °F 93% 30.29 in 0.5 mi Calm Calm - N/A   Overcast
10:55 AM 33.8 °F - 30.2 °F 87% 30.28 in 0.2 mi Calm Calm - N/A   Overcast
11:15 AM 33.8 °F 30.8 °F 30.2 °F 87% 30.27 in 0.2 mi NNE 3.5 mph - N/A   Overcast
11:35 AM 33.8 °F - 32.0 °F 93% 30.25 in 0.2 mi Calm Calm - N/A   Overcast
11:55 AM 33.8 °F - 32.0 °F 93% 30.24 in 0.2 mi Calm Calm - N/A   Overcast
12:15 PM 33.8 °F - 33.8 °F 100% 30.22 in 0.2 mi Calm Calm - N/A   Overcast
12:35 PM 35.6 °F - 33.8 °F 93% 30.21 in 0.2 mi Calm Calm - N/A   Overcast
12:55 PM 37.4 °F - 35.6 °F 93% 30.20 in 1.0 mi Calm Calm - N/A   Overcast
1:15 PM 37.4 °F - 37.4 °F 100% 30.18 in 2.0 mi Calm Calm - N/A   Overcast
1:35 PM 42.8 °F 37.0 °F 39.2 °F 87% 30.16 in 10.0 mi South 10.4 mph - N/A   Overcast
1:55 PM 42.8 °F 37.5 °F 39.2 °F 87% 30.14 in 10.0 mi South 9.2 mph - N/A   Overcast
2:15 PM 41.0 °F 38.0 °F 39.2 °F 93% 30.15 in 9.0 mi WSW 4.6 mph - N/A   Overcast
2:35 PM 41.0 °F 38.0 °F 39.2 °F 93% 30.13 in 8.0 mi SSW 4.6 mph - N/A   Overcast
2:55 PM 42.8 °F 39.3 °F 39.2 °F 87% 30.12 in 10.0 mi SSW 5.8 mph - N/A   Mostly Cloudy
3:15 PM 42.8 °F 39.3 °F 39.2 °F 87% 30.12 in 9.0 mi SW 5.8 mph - N/A   Scattered Clouds
3:35 PM 41.0 °F 39.0 °F 39.2 °F 93% 30.11 in 7.0 mi NW 3.5 mph - N/A   Mostly Cloudy
4:15 PM 39.2 °F - 37.4 °F 93% 30.10 in 2.5 mi Calm Calm - N/A   Overcast
4:35 PM 39.2 °F 35.9 °F 37.4 °F 93% 30.10 in 4.0 mi West 4.6 mph - N/A   Overcast
4:55 PM 39.2 °F - 37.4 °F 93% 30.09 in 3.0 mi Calm Calm - N/A   Mostly Cloudy
5:15 PM 39.2 °F - 37.4 °F 93% 30.08 in 3.0 mi Calm Calm - N/A   Overcast
5:35 PM 39.2 °F - 35.6 °F 87% 30.08 in 3.0 mi Calm Calm - N/A   Mostly Cloudy
5:55 PM 37.4 °F - 35.6 °F 93% 30.08 in 3.0 mi Calm Calm - N/A   Scattered Clouds
6:15 PM 37.4 °F - 35.6 °F 93% 30.06 in 3.0 mi Calm Calm - N/A   Scattered Clouds
6:35 PM 37.4 °F - 35.6 °F 93% 30.08 in 3.0 mi Calm Calm - N/A   Scattered Clouds
6:55 PM 37.4 °F - 35.6 °F 93% 30.07 in 3.0 mi Calm Calm - 0.01 in   Mostly Cloudy
7:15 PM 39.2 °F 35.0 °F 37.4 °F 93% 30.04 in 2.5 mi West 5.8 mph - 0.01 in   Mostly Cloudy
7:35 PM 39.2 °F - 37.4 °F 93% 30.05 in 2.5 mi Calm Calm - 0.01 in   Mostly Cloudy
7:55 PM 39.2 °F - 37.4 °F 93% 30.06 in 2.0 mi Calm Calm - 0.01 in   Overcast
8:15 PM 39.2 °F - 37.4 °F 93% 30.06 in 2.0 mi Calm Calm - 0.02 in   Overcast
8:55 PM 44.6 °F 42.2 °F 42.8 °F 93% 30.05 in 3.0 mi SW 4.6 mph - 0.06 in   Overcast
9:15 PM 42.8 °F 41.1 °F 41.0 °F 93% 30.05 in 2.5 mi SSW 3.5 mph - 0.01 in   Overcast
9:35 PM 44.6 °F 43.1 °F 42.8 °F 93% 30.05 in 3.0 mi SSW 3.5 mph - 0.01 in   Overcast
9:55 PM 44.6 °F 40.7 °F 41.0 °F 87% 30.04 in 3.0 mi SSW 6.9 mph - 0.01 in   Overcast
10:15 PM 44.6 °F 41.4 °F 41.0 °F 87% 30.04 in 3.0 mi SSW 5.8 mph - N/A   Overcast
10:35 PM 44.6 °F 39.2 °F 42.8 °F 93% 30.04 in 4.0 mi SSW 10.4 mph - N/A   Overcast
10:55 PM 44.6 °F 43.1 °F 42.8 °F 93% 30.04 in 4.0 mi SSW 3.5 mph - N/A   Overcast
11:15 PM 44.6 °F 39.2 °F 42.8 °F 93% 30.03 in 4.0 mi SSW 10.4 mph - N/A   Overcast
11:35 PM 44.6 °F 41.4 °F 42.8 °F 93% 30.03 in 5.0 mi SW 5.8 mph - N/A   Overcast
11:55 PM 44.6 °F 40.7 °F 42.8 °F 93% 30.03 in 5.0 mi SW 6.9 mph - N/A   Overcast